[[[{"header":{"parameterUnit":"kt","parameterCategory":2,"dx":1,"dy":1,"la1":30.253999710083008,"la2":30.299108505249023,"lo1":-89.0895004272461,"lo2":-89.04439544677734,"nx":28,"ny":28,"refTime":"2022-10-16T21:00:00:Z","depth":0,"parameterNumber":1,"parameterNumberName":"U-component_of_WINDS"},"data":[-4.073,-4.0829,-4.0793,-4.089,-4.0874,-4.0936,-4.0947,-4.0957,-4.0957,-4.103,-4.1065,-4.1041,-4.1028,-4.1065,-4.1104,-4.1093,-4.1113,-4.1176,-4.1153,-4.0898,-4.0861,-4.0825,-4.0797,-4.1181,-4.1182,-4.1421,-4.1423,-4.1425,-4.0556,-4.054,-4.058,-4.0593,-4.0628,-4.0545,-4.0551,-4.0586,-4.0644,-4.0644,-4.0676,-4.0737,-4.0782,-4.0746,-4.0783,-4.0833,-4.0797,-4.0846,-4.0842,-4.0842,-4.0569,-4.054,-4.0875,-4.0875,-4.0875,-4.0875,-4.0875,-4.0875,-4.0227,-4.0288,-4.0272,-4.0314,-4.031,-4.0321,-4.0373,-4.0338,-4.0378,-4.0408,-4.0356,-4.0422,-4.0416,-4.0441,-4.0441,-4.0494,-4.0432,-4.0475,-4.0486,-4.0498,-4.0517,-4.0182,-4.0498,-4.0497,-4.0496,-4.0495,-4.0494,0,-3.9975,-3.9939,-3.9972,-3.9996,-4.0024,-4.0039,-4.0046,-4.0078,-3.9988,-4.0025,-4.0075,-4.0099,-4.0146,-4.0191,-4.0217,-4.0206,-4.0125,-4.0112,-4.0141,-4.0167,-4.019,-4.0182,-3.974,-4.0102,-4.0099,-4.0096,-4.0094,-4.0093,-3.9643,-3.9715,-3.9679,-3.9708,-3.97,-3.9749,-3.977,-3.9684,-3.9711,-3.9709,-3.9768,-3.981,-3.9839,-3.9929,-3.9888,-3.9924,-3.9884,-4.0027,-3.9889,-3.9913,-3.9888,-3.9885,-3.9894,-4.0055,-4.006,-4.0064,-4.0067,0,-3.946,-3.9393,-3.9493,-3.9448,-3.9439,-3.9522,-3.9484,-3.9542,-3.9499,-3.9573,-3.9585,-3.952,-3.9571,-3.9505,-3.9551,-3.9516,-3.9659,-3.9619,-3.9662,-3.965,-3.9773,-3.9764,-4.0178,-4.0229,-3.9829,-3.9833,-3.9836,0,-3.915,-3.9249,-3.9144,-3.9205,-3.9314,-3.9221,-3.9332,-3.9305,-3.9293,-3.9349,-3.9243,-3.9299,-3.9204,-3.9252,-3.92,-3.9304,-3.9312,-3.9291,-3.9276,-3.9301,-3.9304,-3.9314,-3.9296,-3.9236,-3.9234,-3.9232,-3.923,0,-3.8871,-3.8928,-3.9026,-3.9029,-3.8988,-3.9038,-3.9025,-3.9008,-3.9029,-3.9046,-3.9059,-3.9087,-3.9102,-3.9127,-3.9058,-3.8968,-3.9184,-3.9044,-3.9163,-3.9165,-3.9213,-3.9211,-3.9595,-3.9228,-3.9227,-3.9227,-3.9226,0,-3.8608,-3.8622,-3.8775,-3.8738,-3.8757,-3.8823,-3.884,-3.888,-3.8871,-3.8839,-3.8852,-3.8771,-3.8853,-3.8721,-3.8835,-3.8736,-3.8759,-3.8745,-3.8752,-3.8755,-3.8608,-3.8835,-3.9207,-3.9244,-3.8761,-3.8757,-3.8753,0,-3.8309,-3.8442,-3.836,-3.8507,-3.8558,-3.8432,-3.8504,-3.8496,-3.8459,-3.85,-3.8461,-3.8508,-3.8394,-3.8399,-3.8464,-3.8426,-3.8555,-3.8407,-3.8473,-3.8477,-3.848,-3.8821,-3.8893,-3.9133,-3.8703,-3.8708,-3.8712,0,-3.8066,-3.801,-3.8041,-3.8039,-3.8009,-3.8051,-3.8134,-3.8157,-3.8189,-3.8191,-3.8259,-3.8322,-3.8239,-3.8248,-3.8184,-3.8256,-3.8466,-3.8156,-3.8155,-3.8216,-3.867,-3.8739,-3.8779,-3.8408,-3.8414,-3.8418,-3.8672,0,-3.7689,-3.7744,-3.7825,-3.782,-3.784,-3.7926,-3.7846,-3.7879,-3.7814,-3.7771,-3.7869,-3.7842,-3.7868,-3.7893,-3.7829,-3.8013,-3.7972,-3.7881,-3.7745,-3.797,-3.8051,-3.8085,-3.7631,-3.7626,-3.7623,-3.7619,0,0,-3.742,-3.7494,-3.7398,-3.747,-3.7481,-3.7344,-3.7443,-3.7438,-3.7431,-3.7444,-3.7367,-3.7453,-3.7434,-3.7561,-3.7624,-3.7634,-3.7661,-3.7583,-3.7863,-3.7891,-3.7916,-3.8005,-3.804,-3.7613,-3.7611,-3.761,-3.7609,0,-3.7263,-3.7241,-3.7337,-3.7327,-3.7307,-3.7254,-3.7278,-3.7234,-3.721,-3.7302,-3.7188,-3.7237,-3.7305,-3.7302,-3.7309,-3.7567,-3.7479,-3.7581,-3.7746,-3.7828,-3.7861,-3.7889,-3.7983,-3.8018,-3.76,-3.76,-3.7601,0,-3.7011,-3.6976,-3.7012,-3.7026,-3.7011,-3.7066,-3.6903,-3.6967,-3.7007,-3.6853,-3.6945,-3.692,-3.6907,-3.7035,-3.7089,-3.7021,-3.7318,-3.7208,-3.723,-3.7234,-3.7309,-3.7349,-3.7384,-3.6924,-3.6922,-3.692,0,0,-3.6887,-3.6934,-3.6868,-3.6985,-3.6984,-3.6905,-3.6925,-3.6859,-3.6847,-3.6843,-3.6806,-3.68,-3.6839,-3.6867,-3.6899,-3.705,-3.7041,-3.7128,-3.716,-3.7187,-3.7205,-3.7288,-3.7327,-3.6913,-3.6912,-3.6912,0,0,-3.6828,-3.6753,-3.6686,-3.6812,-3.6803,-3.6746,-3.6822,-3.674,-3.6759,-3.674,-3.6633,-3.6627,-3.6745,-3.6723,-3.663,-3.6849,-3.6716,-3.6737,-3.6858,-3.6897,-3.6928,-3.6931,-3.6459,0,0,0,0,0,-3.6623,-3.6762,-3.6702,-3.6711,-3.6725,-3.6779,-3.6781,-3.6694,-3.6602,-3.6665,-3.6622,-3.6524,-3.6652,-3.6566,-3.6578,-3.6682,-3.6813,-3.6831,-3.6848,-3.7039,-3.7081,-3.7116,0,0,0,0,0,0,-3.6626,-3.6636,-3.6698,-3.6648,-3.665,-3.6773,-3.6598,-3.6578,-3.6593,-3.6573,-3.6535,-3.6522,-3.6451,-3.6555,-3.6566,-3.6667,-3.6455,-3.682,-3.6835,-3.6849,-3.7053,-3.7088,-3.7117,0,0,0,0,0,-3.6627,-3.6636,-3.6681,-3.6645,-3.6647,-3.6565,-3.6592,-3.6574,-3.6584,-3.6515,-3.6499,-3.6517,-3.6456,-3.646,-3.6561,-3.6664,-3.6446,-3.6451,-3.683,-3.6842,-3.6852,-3.707,0,0,0,0,0,0,-3.6629,-3.6621,-3.6679,-3.6677,-3.6584,-3.6556,-3.6549,-3.6571,-3.6523,-3.6509,-3.649,-3.6475,-3.6462,-3.6464,-3.6468,-3.6668,-3.6439,-3.6444,-3.6447,-3.6839,-3.6848,-3.6856,0,0,0,0,0,0,-3.6616,-3.662,-3.6678,-3.6606,-3.6595,-3.6549,-3.6542,-3.6614,-3.6525,-3.6501,-3.6487,-3.6484,-3.6457,-3.6467,-3.6469,-3.6586,-3.6433,-3.6438,-3.6441,-3.6443,-3.6846,-3.6854,0,0,0,0,0,0,-3.6616,-3.6619,-3.6606,-3.6598,-3.6587,-3.6553,-3.6611,-3.6632,-3.6461,-3.6505,-3.6443,-3.6435,-3.6463,-3.6464,-3.6472,-3.6588,-3.6586,-3.6433,-3.6437,-3.6439,-3.644,0,0,0,0,0,0,0,-3.6616,-3.6613,-3.6694,-3.659,-3.6581,-3.6654,-3.6654,-3.6653,-3.6459,-3.6452,-3.6445,-3.6438,-3.6407,-3.6412,-3.6417,-3.6589,0,0,-3.6433,-3.6435,0,0,0,0,0,0,0,0,-3.6609,-3.6612,-3.6694,-3.6693,-3.6693,-3.6654,-3.6654,-3.6653,-3.6458,-3.6452,-3.6446,-3.6441,-3.6408,-3.6412,-3.6417,0,0,0,0,0,0,0,0,0,0,0,0,0,0,0,-3.6694,-3.6693,0,-3.6654,-3.6654,-3.6653,-3.6457,-3.6452,-3.6448,-3.6443,-3.641,-3.6413,-3.6416,0,0,0,0,0,0,0,0,0,0,0,0,0,0,0,0,0,0,0,0,0,0,0,0,0,0,0,0,0,0,0,0,0,0,0,0,0,0,0,0,0,0,0,0,0,0,0,0,0,0,0,0,0,0,0,0,0,0,0,0,0,0,0,0,0,0,0,0,0]}],[{"header":{"parameterUnit":"kt","parameterCategory":2,"dx":1,"dy":1,"la1":30.253999710083008,"la2":30.299108505249023,"lo1":-89.0895004272461,"lo2":-89.04439544677734,"nx":28,"ny":28,"refTime":"2022-10-16T21:00:00:Z","depth":0,"parameterNumber":2,"parameterNumberName":"V-component_of_WINDS"},"data":[3.8872,3.8803,3.8842,3.878,3.8803,3.8767,3.8766,3.8768,3.8778,3.8737,3.8719,3.8748,3.877,3.8756,3.8737,3.875,3.8738,3.8688,3.8711,3.8906,3.8935,3.8963,3.8983,3.8685,3.8685,3.8503,3.8501,3.85,3.9015,3.9039,3.9017,3.9022,3.9004,3.9076,3.9084,3.9063,3.9027,3.9039,3.9024,3.8989,3.8965,3.9005,3.8988,3.8954,3.8985,3.8946,3.8948,3.895,3.9161,3.9182,3.8922,3.8922,3.8922,3.8922,3.8922,3.8922,3.9287,3.9244,3.927,3.9246,3.9259,3.9261,3.9225,3.9263,3.924,3.9228,3.9276,3.9234,3.9251,3.9246,3.9253,3.922,3.9269,3.9236,3.9228,3.9218,3.9204,3.9462,3.9219,3.9219,3.922,3.9221,3.9222,0,3.9497,3.9532,3.9514,3.9507,3.9491,3.9488,3.9491,3.947,3.9553,3.953,3.95,3.9488,3.9463,3.9436,3.9427,3.944,3.9508,3.9519,3.9497,3.9473,3.9454,3.9463,3.9804,3.9525,3.9528,3.953,3.9531,3.9532,3.9773,3.9718,3.9762,3.9744,3.9755,3.9723,3.9712,3.979,3.9773,3.9787,3.9743,3.9718,3.9702,3.9644,3.9683,3.9663,3.9695,3.9585,3.9692,3.9673,3.9692,3.9694,3.9689,3.9561,3.9558,3.9555,3.9552,0,3.9924,3.9987,3.9913,3.9961,3.9972,3.9909,3.9949,3.9907,3.9947,3.9895,3.9887,3.9947,3.9914,3.9973,3.9944,3.9975,3.9869,3.9902,3.9866,3.9875,3.9781,3.9789,3.9469,3.9431,3.9742,3.9739,3.9737,0,4.0183,4.0106,4.0204,4.0157,4.0075,4.0156,4.0072,4.0098,4.0115,4.0074,4.0164,4.0123,4.0204,4.0171,4.0217,4.0141,4.0135,4.0154,4.0166,4.0145,4.0142,4.0133,4.0147,4.0198,4.0199,4.0201,4.0202,0,4.0412,4.0374,4.03,4.0301,4.0343,4.0305,4.032,4.034,4.0326,4.0318,4.031,4.0293,4.0283,4.0268,4.0326,4.0397,4.0235,4.0343,4.0253,4.0251,4.0212,4.0213,3.9919,4.0204,4.0204,4.0205,4.0206,0,4.0629,4.0624,4.0506,4.0544,4.053,4.048,4.0471,4.0442,4.0455,4.0482,4.0475,4.054,4.0479,4.0583,4.05,4.0575,4.056,4.0572,4.0567,4.0563,4.0677,4.0501,4.0216,4.0188,4.0562,4.0565,4.0568,0,4.0875,4.0773,4.0843,4.0728,4.0689,4.0795,4.074,4.0749,4.078,4.075,4.0784,4.0747,4.0837,4.0833,4.0784,4.0816,4.0717,4.0831,4.0781,4.0779,4.0775,4.0514,4.0456,4.0273,4.0607,4.0603,4.06,0,4.1073,4.1127,4.1101,4.1106,4.1132,4.1099,4.1036,4.1019,4.0995,4.0994,4.0942,4.0892,4.0958,4.0949,4.1,4.0945,4.0786,4.1022,4.1024,4.0977,4.0631,4.0577,4.0546,4.0832,4.0827,4.0823,4.0631,0,4.1387,4.1343,4.1278,4.1283,4.1268,4.1198,4.1264,4.1238,4.1291,4.1325,4.1248,4.1268,4.1246,4.1226,4.1274,4.1132,4.1165,4.1234,4.1337,4.1166,4.1104,4.1078,4.1425,4.1429,4.1431,4.1434,0,0,4.1605,4.1545,4.1622,4.1565,4.1556,4.1665,4.1585,4.1589,4.1591,4.1582,4.1641,4.1571,4.1582,4.1482,4.1433,4.1424,4.1404,4.146,4.1247,4.1226,4.1207,4.1139,4.1112,4.1439,4.144,4.1441,4.1442,0,4.1733,4.175,4.1671,4.168,4.1695,4.1736,4.1717,4.1749,4.1767,4.1693,4.178,4.1741,4.1681,4.1683,4.1675,4.1475,4.1541,4.1464,4.1336,4.1274,4.1249,4.1227,4.1156,4.1129,4.1449,4.1448,4.1448,0,4.1939,4.1965,4.1935,4.1921,4.1931,4.1886,4.2013,4.196,4.1927,4.2044,4.1968,4.1986,4.1992,4.1889,4.1845,4.1896,4.1663,4.1747,4.173,4.1725,4.1668,4.1638,4.1612,4.1963,4.1964,4.1966,0,0,4.204,4.2001,4.2051,4.1954,4.1954,4.2013,4.1995,4.2046,4.2052,4.2053,4.2078,4.2078,4.2045,4.202,4.1992,4.1869,4.1875,4.1807,4.1783,4.1763,4.1747,4.1685,4.1655,4.1971,4.1972,4.1972,0,0,4.2087,4.2144,4.2197,4.2092,4.2097,4.2137,4.2074,4.2138,4.2119,4.2133,4.2211,4.2215,4.2119,4.2132,4.2204,4.2029,4.213,4.2114,4.2023,4.1994,4.197,4.1968,4.2332,0,0,0,0,0,4.2252,4.2138,4.2185,4.2177,4.2158,4.2112,4.211,4.2174,4.2246,4.2194,4.2225,4.2297,4.2188,4.2253,4.2242,4.216,4.2047,4.2034,4.2021,4.1876,4.1844,4.1817,0,0,0,0,0,0,4.2249,4.2239,4.2188,4.2223,4.222,4.2117,4.2252,4.2267,4.2253,4.2268,4.2289,4.2298,4.2349,4.2263,4.2252,4.2173,4.2336,4.2042,4.2031,4.202,4.1865,4.1839,4.1817,0,0,0,0,0,4.2247,4.224,4.2192,4.2225,4.2222,4.2281,4.2257,4.227,4.226,4.2307,4.2318,4.231,4.2345,4.234,4.2257,4.2176,4.2344,4.234,4.2035,4.2026,4.2017,4.1852,0,0,0,0,0,0,4.2246,4.225,4.2193,4.2195,4.2274,4.2288,4.2293,4.2273,4.2301,4.2311,4.2332,4.2344,4.2341,4.2338,4.2334,4.2174,4.235,4.2346,4.2343,4.2028,4.2021,4.2014,0,0,0,0,0,0,4.2255,4.225,4.2194,4.2251,4.226,4.2294,4.2298,4.2236,4.23,4.2325,4.2336,4.2337,4.2346,4.2335,4.2333,4.2232,4.2355,4.2351,4.2348,4.2346,4.2022,4.2016,0,0,0,0,0,0,4.2254,4.225,4.2251,4.2258,4.2265,4.2285,4.224,4.2215,4.2353,4.2322,4.2367,4.2373,4.2341,4.234,4.2331,4.2232,4.2232,4.2355,4.2352,4.235,4.2349,0,0,0,0,0,0,0,4.2254,4.2264,4.2186,4.2263,4.227,4.2207,4.2207,4.2207,4.2354,4.236,4.2365,4.237,4.2379,4.2375,4.237,4.2231,0,0,4.2356,4.2354,0,0,0,0,0,0,0,0,4.2267,4.2265,4.2186,4.2186,4.2187,4.2207,4.2207,4.2207,4.2355,4.2359,4.2364,4.2368,4.2378,4.2374,4.2371,0,0,0,0,0,0,0,0,0,0,0,0,0,0,0,4.2186,4.2186,0,4.2207,4.2207,4.2207,4.2356,4.2359,4.2363,4.2366,4.2377,4.2374,4.2371,0,0,0,0,0,0,0,0,0,0,0,0,0,0,0,0,0,0,0,0,0,0,0,0,0,0,0,0,0,0,0,0,0,0,0,0,0,0,0,0,0,0,0,0,0,0,0,0,0,0,0,0,0,0,0,0,0,0,0,0,0,0,0,0,0,0,0,0,0]}]]]